Tyler, TX

6:46 AM CDT on March 23, 2017 (GMT -0500)
Tyler Pounds

Weather History for KTYR - December, 2013

Change the Weather History Date:

Thursday, December 5, 2013

  Actual Average Record
Temperature  
Mean Temperature 50 °F 50 °F  
Max Temperature 67 °F 59 °F 81 °F (1914)
Min Temperature 32 °F 40 °F 11 °F (1897)
Degree Days  
Heating Degree Days 15 16  
Month to date heating degree days 25 76  
Since 1 July heating degree days 415 450  
Cooling Degree Days 0 0  
Month to date cooling degree days 5 0  
Year to date cooling degree days 2772 2411  
Moisture  
Dew Point 34 °F    
Average Humidity 80    
Maximum Humidity 96    
Minimum Humidity 64    
Precipitation  
Precipitation 0.05 in 0.12 in 1.84 in (1944)
Month to date precipitation 0.05 0.65  
Year to date precipitation 39.06 42.20  
Snow  
Snow 0.00 in - - ()
Month to date snowfall 0.0  
Since 1 July snowfall T  
Snow Depth 0.00 in    
Sea Level Pressure  
Sea Level Pressure 30.03 in    
Wind  
Wind Speed 12 mph (NNW)    
Max Wind Speed 20 mph    
Max Gust Speed 28 mph    
Visibility 9 miles    
Events Rain    
T = Trace of Precipitation, MM = Missing Value Source: NWS Daily Summary

Daily Weather History Graph

Daily Weather History Graph

Search for Another Location

Airport or City:

Trip Planner

Search our weather history database for the weather conditions in past years. The results will help you decide how hot, cold, wet, or windy it might be!

Date:

Astronomy

Dec. 05, 2013 Rise Set
Actual Time 7:08 AM CST 5:16 PM CST
Civil Twilight 6:41 AM CST 5:43 PM CST
Nautical Twilight 6:11 AM CST 6:13 PM CST
Astronomical Twilight 5:41 AM CST 6:43 PM CST
Moon 9:33 AM CST (12/5) 8:32 PM CST (12/5)
Length of Visible Light 11h 01m
Length of Day
10h 07m
Waxing Crescent, 11% of the Moon is Illuminated
Dec 5
Waxing Crescent
Dec 9
First Quarter
Dec 17
Full
Dec 25
Last Quarter
Jan 1
New

Hourly Weather History & Observations

Time (CST) Temp. Windchill Dew Point Humidity Pressure Visibility Wind Dir Wind Speed Gust Speed Precip Events Conditions
12:40 AM 66.2 °F - 62.6 °F 88% 29.82 in 6.0 mi Calm Calm - N/A   Overcast
12:49 AM 66.2 °F - 60.8 °F 83% 29.82 in 7.0 mi NNW 3.5 mph - N/A   Overcast
12:53 AM 64.9 °F - 60.1 °F 84% 29.81 in 7.0 mi NNW 6.9 mph - N/A   Overcast
1:49 AM 57.2 °F - 46.4 °F 67% 29.85 in 10.0 mi NNW 15.0 mph - N/A   Overcast
1:53 AM 57.0 °F - 46.0 °F 67% 29.84 in 10.0 mi NNW 17.3 mph 21.9 mph N/A   Overcast
2:53 AM 54.0 °F - 42.1 °F 64% 29.86 in 10.0 mi North 12.7 mph - N/A   Overcast
3:53 AM 48.9 °F - 37.0 °F 64% 29.91 in 10.0 mi NW 17.3 mph 21.9 mph N/A   Overcast
4:49 AM 46.4 °F 39.8 °F 35.6 °F 66% 29.95 in 10.0 mi North 16.1 mph 24.2 mph N/A   Overcast
4:53 AM 45.0 °F 38.2 °F 35.1 °F 68% 29.94 in 10.0 mi NNW 15.0 mph 24.2 mph N/A   Overcast
5:53 AM 43.0 °F 34.5 °F 33.1 °F 68% 29.97 in 10.0 mi North 19.6 mph 26.5 mph N/A   Overcast
6:53 AM 41.0 °F 33.1 °F 30.0 °F 65% 30.01 in 10.0 mi NNW 15.0 mph 25.3 mph N/A   Overcast
7:53 AM 39.0 °F 31.4 °F 28.0 °F 65% 30.04 in 10.0 mi NNW 12.7 mph - N/A   Overcast
8:53 AM 37.9 °F 29.2 °F 28.0 °F 68% 30.06 in 10.0 mi North 15.0 mph 20.7 mph N/A   Overcast
9:53 AM 37.9 °F 29.6 °F 28.0 °F 68% 30.08 in 10.0 mi NNW 13.8 mph 20.7 mph N/A   Overcast
10:53 AM 39.0 °F 31.8 °F 28.0 °F 65% 30.08 in 10.0 mi North 11.5 mph - N/A   Overcast
11:53 AM 37.9 °F 30.5 °F 28.0 °F 68% 30.07 in 10.0 mi North 11.5 mph - N/A   Overcast
12:53 PM 37.0 °F 28.5 °F 28.0 °F 70% 30.06 in 10.0 mi NNW 13.8 mph 20.7 mph N/A   Overcast
1:53 PM 35.1 °F 27.4 °F 28.9 °F 78% 30.04 in 10.0 mi North 10.4 mph 21.9 mph 0.00 in Rain Light Rain
2:53 PM 35.1 °F 25.9 °F 27.0 °F 72% 30.04 in 10.0 mi North 13.8 mph 18.4 mph 0.00 in   Overcast
3:27 PM 33.8 °F 24.8 °F 28.4 °F 81% 30.06 in 10.0 mi North 12.7 mph - 0.00 in Rain Light Rain
3:53 PM 33.1 °F 24.4 °F 28.9 °F 85% 30.07 in 10.0 mi North 11.5 mph 20.7 mph 0.00 in   Overcast
4:08 PM 33.8 °F 24.3 °F 28.4 °F 81% 30.07 in 10.0 mi North 13.8 mph 21.9 mph N/A   Overcast
4:53 PM 33.1 °F 23.0 °F 28.9 °F 85% 30.09 in 8.0 mi North 15.0 mph - 0.00 in Rain Light Rain
5:53 PM 32.0 °F 24.2 °F 28.9 °F 88% 30.09 in 10.0 mi North 9.2 mph - 0.01 in   Overcast
6:28 PM 32.0 °F 23.0 °F 30.2 °F 93% 30.10 in 8.0 mi North 11.5 mph - 0.00 in Rain Light Freezing Rain
6:53 PM 33.1 °F 25.5 °F 30.0 °F 89% 30.10 in 7.0 mi North 9.2 mph - 0.01 in Rain Light Freezing Rain
7:53 PM 33.1 °F 25.5 °F 30.9 °F 92% 30.12 in 6.0 mi North 9.2 mph - 0.02 in Rain Light Freezing Rain
8:01 PM 33.8 °F 27.0 °F 30.2 °F 87% 30.12 in 8.0 mi NNW 8.1 mph - 0.00 in Rain Light Freezing Rain
8:22 PM 33.8 °F 25.8 °F 30.2 °F 87% 30.11 in 10.0 mi North 10.4 mph - 0.01 in   Overcast
8:37 PM 33.8 °F 25.8 °F 30.2 °F 87% 30.11 in 10.0 mi North 10.4 mph - 0.01 in Rain Light Freezing Rain
8:53 PM 34.0 °F 26.0 °F 30.9 °F 89% 30.12 in 9.0 mi North 10.4 mph - 0.01 in Rain Light Freezing Rain
9:53 PM 34.0 °F 26.6 °F 32.0 °F 92% 30.12 in 9.0 mi North 9.2 mph - 0.00 in   Overcast
10:53 PM 34.0 °F 27.2 °F 32.0 °F 92% 30.12 in 6.0 mi North 8.1 mph - N/A   Overcast
11:01 PM 33.8 °F 27.0 °F 32.0 °F 93% 30.11 in 6.0 mi North 8.1 mph - N/A   Overcast
11:53 PM 34.0 °F 26.6 °F 32.0 °F 92% 30.12 in 8.0 mi North 9.2 mph - 0.00 in   Overcast